Tracking 19245 objects as of 17-Aug-2018
HD Live streaming from Space Station
objects crossing your sky now

USA 37

Track USA 37 now!
USA 37 is classified as:


NORAD ID: 19976
Int'l Code: 1989-035A
Perigee: 31,642.9 km
Apogee: 39,945.6 km
Inclination: 8.0 °
Period: 1,436.1 minutes
Semi major axis: 42165 km
RCS: Unknown
Launch date: May 10, 1989
Source: United States (US)
Launch site: AIR FORCE EASTERN TEST RANGE (AFETR)
aabbcc
Your satellite tracking list
Your tracking list is empty




NASA's NSSDC Master Catalog

Two Line Element Set (TLE):
1 19976U 89035A   18038.37489204 0.00000000  00000-0  00000-0 0    07
2 19976   8.0327   7.8685 0984541 283.4044  65.8592  1.00270000    09
Source of the keplerian elements: McCants